| time (UTC) | temp F | wind direction | speed knots | gust knots | rain 1hr in | rain 24hr in | rain mn in | humidity % | barometer mb |
| 20260507021611 | 54 | 268 | 0.0 | 1.7 | 0.00 | 0.00 | 0.00 | 86 | 1008.8 |
| 20260507020110 | 55 | 268 | 0.0 | 0.9 | 0.00 | 0.00 | 0.00 | 85 | 1008.9 |
| 20260507014610 | 55 | 268 | 0.9 | 2.6 | 0.00 | 0.00 | 0.00 | 84 | 1008.6 |
| 20260507013112 | 56 | 250 | 0.9 | 2.6 | 0.00 | 0.00 | 0.00 | 84 | 1008.6 |
| 20260507011610 | 56 | 244 | 2.6 | 5.2 | 0.00 | 0.00 | 0.00 | 83 | 1008.3 |
| 20260507010110 | 56 | 266 | 1.7 | 5.2 | 0.00 | 0.00 | 0.00 | 82 | 1008.0 |
| 20260507004610 | 56 | 245 | 3.5 | 7.0 | 0.00 | 0.00 | 0.00 | 82 | 1007.9 |
| 20260507003110 | 57 | 217 | 2.6 | 7.0 | 0.00 | 0.00 | 0.00 | 82 | 1007.7 |
| 20260507001610 | 57 | 274 | 1.7 | 5.2 | 0.00 | 0.00 | 0.00 | 81 | 1007.6 |
| 20260507000110 | 58 | 288 | 2.6 | 7.0 | 0.00 | 0.00 | 0.00 | 81 | 1007.2 |
| 20260506234610 | 58 | 263 | 3.5 | 8.7 | 0.00 | 0.00 | 0.00 | 81 | 1007.3 |
| 20260506233111 | 58 | 242 | 4.3 | 7.8 | 0.00 | 0.00 | 0.00 | 81 | 1007.0 |
| 20260506231609 | 58 | 217 | 1.7 | 3.5 | 0.00 | 0.00 | 0.00 | 79 | 1006.7 |
| 20260506230109 | 59 | 274 | 1.7 | 3.5 | 0.00 | 0.00 | 0.00 | 78 | 1006.3 |
| 20260506224611 | 58 | 254 | 3.5 | 6.1 | 0.00 | 0.00 | 0.00 | 77 | 1006.3 |
| 20260506223110 | 59 | 175 | 0.9 | 2.6 | 0.00 | 0.00 | 0.00 | 75 | 1006.2 |
| 20260506221609 | 59 | 154 | 0.0 | 1.7 | 0.00 | 0.00 | 0.00 | 74 | 1005.8 |
| 20260506220110 | 60 | 151 | 0.0 | 0.9 | 0.00 | 0.00 | 0.00 | 74 | 1005.8 |
| 20260506213110 | 61 | 194 | 2.6 | 4.3 | 0.00 | 0.00 | 0.00 | 72 | 1005.9 |
| 20260506211609 | 61 | 105 | 0.0 | 3.5 | 0.00 | 0.00 | 0.00 | 72 | 1005.2 |
| 20260506210108 | 62 | 143 | 1.7 | 3.5 | 0.00 | 0.00 | 0.00 | 71 | 1005.3 |
| 20260506204610 | 62 | 165 | 0.9 | 4.3 | 0.00 | 0.00 | 0.00 | 71 | 1005.1 |
| 20260506203108 | 63 | 145 | 1.7 | 4.3 | 0.00 | 0.00 | 0.00 | 70 | 1005.1 |
| 20260506200113 | 64 | 162 | 0.9 | 5.2 | 0.00 | 0.00 | 0.00 | 68 | 1004.8 |
| 20260506194614 | 64 | 157 | 2.6 | 7.0 | 0.00 | 0.00 | 0.00 | 68 | 1004.5 |
| 20260506193113 | 64 | 187 | 1.7 | 6.1 | 0.00 | 0.00 | 0.00 | 67 | 1004.5 |
| 20260506190113 | 65 | 165 | 0.9 | 5.2 | 0.00 | 0.00 | 0.00 | 64 | 1004.5 |
| 20260506184613 | 66 | 140 | 3.5 | 9.6 | 0.00 | 0.00 | 0.00 | 62 | 1004.5 |
| 20260506183113 | 66 | 242 | 3.5 | 8.7 | 0.00 | 0.00 | 0.00 | 62 | 1004.3 |
| 20260506181613 | 67 | 170 | 4.3 | 7.0 | 0.00 | 0.00 | 0.00 | 61 | 1004.1 |
| 20260506174612 | 68 | 155 | 1.7 | 7.8 | 0.00 | 0.00 | 0.00 | 59 | 1004.0 |
| 20260506173112 | 69 | 157 | 3.5 | 8.7 | 0.00 | 0.00 | 0.00 | 57 | 1003.9 |
| 20260506171612 | 69 | 142 | 3.5 | 8.7 | 0.00 | 0.00 | 0.00 | 56 | 1004.0 |
| 20260506164613 | 70 | 158 | 4.3 | 12.2 | 0.00 | 0.00 | 0.00 | 55 | 1004.2 |
| 20260506163113 | 71 | 141 | 6.1 | 15.6 | 0.00 | 0.00 | 0.00 | 53 | 1004.2 |
| 20260506161611 | 71 | 132 | 2.6 | 8.7 | 0.00 | 0.00 | 0.00 | 52 | 1004.5 |
| 20260506160112 | 72 | 147 | 3.5 | 13.9 | 0.00 | 0.00 | 0.00 | 50 | 1004.6 |
| 20260506154611 | 73 | 159 | 3.5 | 12.2 | 0.00 | 0.00 | 0.00 | 49 | 1004.7 |
| 20260506153112 | 73 | 197 | 5.2 | 13.0 | 0.00 | 0.00 | 0.00 | 50 | 1004.8 |
| 20260506151612 | 74 | 165 | 4.3 | 8.7 | 0.00 | 0.00 | 0.00 | 52 | 1005.0 |
| 20260506150111 | 73 | 178 | 3.5 | 13.0 | 0.00 | 0.00 | 0.00 | 51 | 1005.3 |
| 20260506144611 | 74 | 138 | 9.6 | 14.8 | 0.00 | 0.00 | 0.00 | 49 | 1005.5 |
| 20260506143111 | 74 | 165 | 3.5 | 12.2 | 0.00 | 0.00 | 0.00 | 52 | 1005.8 |
| 20260506141611 | 74 | 91 | 7.0 | 13.9 | 0.00 | 0.00 | 0.00 | 51 | 1006.1 |
| 20260506134610 | 72 | 170 | 7.8 | 13.0 | 0.00 | 0.00 | 0.00 | 53 | 1006.2 |
| 20260506133110 | 72 | 115 | 4.3 | 12.2 | 0.00 | 0.00 | 0.00 | 55 | 1006.4 |
| 20260506131610 | 73 | 146 | 5.2 | 12.2 | 0.00 | 0.00 | 0.00 | 55 | 1006.4 |
| 20260506130110 | 72 | 114 | 7.0 | 10.4 | 0.00 | 0.00 | 0.00 | 53 | 1006.7 |
| 20260506124610 | 72 | 132 | 5.2 | 13.0 | 0.00 | 0.00 | 0.00 | 55 | 1006.9 |
| 20260506121610 | 71 | 161 | 4.3 | 9.6 | 0.00 | 0.00 | 0.00 | 53 | 1007.2 |
| 20260506120110 | 72 | 179 | 5.2 | 9.6 | 0.00 | 0.00 | 0.00 | 51 | 1007.3 |
| 20260506114609 | 72 | 19 | 3.5 | 7.8 | 0.00 | 0.00 | 0.00 | 53 | 1007.3 |
| 20260506113111 | 72 | 140 | 2.6 | 8.7 | 0.00 | 0.00 | 0.00 | 52 | 1007.4 |
| 20260506111609 | 73 | 130 | 3.5 | 7.8 | 0.00 | 0.00 | 0.00 | 51 | 1007.4 |
| 20260506110109 | 71 | 322 | 2.6 | 10.4 | 0.00 | 0.00 | 0.00 | 53 | 1007.6 |
| 20260506104611 | 73 | 173 | 4.3 | 8.7 | 0.00 | 0.00 | 0.00 | 50 | 1007.8 |
| 20260506100111 | 72 | 141 | 4.3 | 7.8 | 0.00 | 0.00 | 0.00 | 52 | 1008.0 |
| 20260506094609 | 72 | 160 | 4.3 | 9.6 | 0.00 | 0.00 | 0.00 | 55 | 1008.2 |
| 20260506093110 | 71 | 195 | 3.5 | 6.1 | 0.00 | 0.00 | 0.00 | 53 | 1008.2 |
| 20260506091609 | 69 | 167 | 2.6 | 9.6 | 0.00 | 0.00 | 0.00 | 55 | 1008.3 |
| 20260506090110 | 70 | 153 | 4.3 | 9.6 | 0.00 | 0.00 | 0.00 | 56 | 1008.4 |
| 20260506083109 | 67 | 218 | 6.1 | 11.3 | 0.00 | 0.00 | 0.00 | 61 | 1008.4 |
| 20260506081609 | 68 | 157 | 3.5 | 7.0 | 0.00 | 0.00 | 0.00 | 63 | 1008.5 |
| 20260506080114 | 68 | 125 | 6.1 | 11.3 | 0.00 | 0.00 | 0.00 | 65 | 1008.5 |
| 20260506073113 | 66 | 196 | 4.3 | 7.0 | 0.00 | 0.00 | 0.00 | 69 | 1008.6 |
| 20260506070114 | 64 | 175 | 1.7 | 6.1 | 0.00 | 0.00 | 0.00 | 73 | 1008.7 |
| 20260506061613 | 59 | 208 | 3.5 | 5.2 | 0.00 | 0.00 | 0.00 | 81 | 1008.7 |
| 20260506060113 | 58 | 198 | 4.3 | 5.2 | 0.00 | 0.00 | 0.00 | 82 | 1008.5 |
| 20260506044612 | 52 | 173 | 0.0 | 0.0 | 0.00 | 0.00 | 0.00 | 89 | 1008.0 |
| 20260506043112 | 52 | 174 | 0.0 | 0.9 | 0.00 | 0.00 | 0.00 | 89 | 1008.0 |
| 20260506041612 | 51 | 314 | 0.9 | 1.7 | 0.00 | 0.00 | 0.00 | 89 | 1007.9 |
| 20260506040112 | 51 | 321 | 0.0 | 0.0 | 0.00 | 0.00 | 0.00 | 88 | 1007.7 |
| 20260506033111 | 51 | 321 | 0.0 | 0.0 | 0.00 | 0.00 | 0.00 | 86 | 1007.5 |
| 20260506031611 | 51 | 321 | 0.0 | 0.0 | 0.00 | 0.00 | 0.00 | 86 | 1007.5 |
| 20260506024611 | 52 | 321 | 0.0 | 0.0 | 0.00 | 0.00 | 0.00 | 84 | 1007.2 |